SWA962 KCOS-KPHX

Flight info

Callsign SWA962
Flight time 1h 25m
Altitude 17000
Route DRAKE V83 PUB/N0447F380 RGINA J102 GUP EAGUL6
Aircraft B737/M-SDE2E3FGHIRWXY/LB1

Departure

Time 2026-04-11 05:35
Airport City of Colorado Springs Municipal Airport (KCOS)

Arrival

Time 2026-04-11 07:01
Airport Phoenix Sky Harbor International Airport (KPHX)
Time Latitude Longitude Altitude Speed Heading
2026-04-11 05:14 38.80007 -104.70078 6145 ft 0 kts 185°
2026-04-11 05:27 38.80013 -104.70077 6146 ft 4 kts 185°
2026-04-11 05:27 38.80038 -104.70074 6146 ft 4 kts 182°
2026-04-11 05:27 38.80062 -104.70079 6147 ft 4 kts 139°
2026-04-11 05:27 38.80074 -104.70106 6147 ft 4 kts 97°
2026-04-11 05:28 38.80075 -104.70141 6147 ft 4 kts 89°
2026-04-11 05:28 38.80075 -104.70148 6147 ft 1 kts 90°
2026-04-11 05:30 38.80080 -104.70104 6147 ft 8 kts 60°
2026-04-11 05:30 38.80151 -104.70085 6148 ft 13 kts 360°
2026-04-11 05:30 38.80239 -104.70085 6150 ft 12 kts
2026-04-11 05:30 38.80323 -104.70084 6151 ft 12 kts
2026-04-11 05:31 38.80361 -104.69975 6152 ft 21 kts 90°
2026-04-11 05:31 38.80361 -104.69748 6152 ft 26 kts 90°
2026-04-11 05:31 38.80360 -104.69516 6152 ft 28 kts 90°
2026-04-11 05:31 38.80360 -104.69240 6152 ft 33 kts 91°
2026-04-11 05:32 38.80360 -104.68957 6152 ft 30 kts 90°
2026-04-11 05:32 38.80428 -104.68787 6153 ft 23 kts 359°
2026-04-11 05:32 38.80597 -104.68787 6156 ft 25 kts
2026-04-11 05:32 38.80762 -104.68785 6158 ft 23 kts
2026-04-11 05:33 38.80931 -104.68787 6161 ft 28 kts
2026-04-11 05:33 38.81118 -104.68785 6164 ft 26 kts 360°
2026-04-11 05:33 38.81292 -104.68785 6167 ft 24 kts 360°
2026-04-11 05:33 38.81454 -104.68786 6173 ft 23 kts 360°
2026-04-11 05:34 38.81586 -104.68766 6171 ft 11 kts 43°
2026-04-11 05:34 38.81599 -104.68670 6172 ft 11 kts 91°
2026-04-11 05:34 38.81589 -104.68576 6176 ft 11 kts 131°
2026-04-11 05:34 38.81453 -104.68570 6173 ft 45 kts 181°
2026-04-11 05:35 38.80895 -104.68575 6160 ft 114 kts 180°
2026-04-11 05:35 38.79904 -104.68572 6149 ft 169 kts 180°
2026-04-11 05:35 38.78590 -104.68590 6354 ft 201 kts 181°
2026-04-11 05:35 38.77227 -104.68628 7372 ft 192 kts 181°
2026-04-11 05:36 38.75915 -104.68605 8248 ft 186 kts 180°
2026-04-11 05:36 38.74623 -104.68514 8932 ft 194 kts 169°
2026-04-11 05:36 38.73429 -104.67505 9130 ft 227 kts 128°
2026-04-11 05:36 38.72563 -104.65659 9351 ft 257 kts 124°
2026-04-11 05:37 38.71618 -104.63565 9649 ft 283 kts 124°
2026-04-11 05:37 38.70592 -104.61351 10311 ft 296 kts 125°
2026-04-11 05:37 38.69470 -104.58998 10522 ft 324 kts 125°
2026-04-11 05:37 38.68247 -104.56490 10709 ft 349 kts 126°
2026-04-11 05:38 38.66916 -104.53793 11083 ft 366 kts 126°
2026-04-11 05:38 38.65533 -104.51016 11734 ft 372 kts 125°
2026-04-11 05:38 38.64131 -104.48220 12530 ft 375 kts 126°
2026-04-11 05:38 38.62696 -104.45404 13301 ft 379 kts 129°
2026-04-11 05:39 38.60812 -104.43079 14007 ft 378 kts 151°
2026-04-11 05:39 38.58407 -104.41790 14739 ft 375 kts 169°
2026-04-11 05:39 38.55828 -104.41490 15484 ft 374 kts 182°
2026-04-11 05:39 38.53226 -104.41597 15834 ft 374 kts 185°
2026-04-11 05:40 38.50627 -104.41774 15959 ft 374 kts 185°
2026-04-11 05:40 38.47999 -104.41956 16350 ft 381 kts 185°
2026-04-11 05:40 38.45348 -104.42119 17217 ft 380 kts 185°
2026-04-11 05:40 38.42711 -104.42262 18136 ft 379 kts 185°
2026-04-11 05:41 38.40059 -104.42394 18805 ft 383 kts 185°
2026-04-11 05:41 38.37419 -104.42520 19413 ft 387 kts 185°
2026-04-11 05:41 38.34721 -104.42648 20073 ft 389 kts 185°
2026-04-11 05:41 38.32028 -104.42939 20700 ft 389 kts 195°
2026-04-11 05:42 38.29515 -104.44202 21334 ft 389 kts 210°
2026-04-11 05:42 38.27344 -104.46241 21960 ft 391 kts 224°
2026-04-11 05:42 38.25560 -104.48879 22556 ft 394 kts 230°
2026-04-11 05:42 38.23866 -104.51639 23106 ft 398 kts 231°
2026-04-11 05:43 38.22181 -104.54451 23663 ft 401 kts 231°
2026-04-11 05:43 38.20489 -104.57283 24132 ft 404 kts 231°
2026-04-11 05:43 38.18780 -104.60125 24599 ft 406 kts 231°
2026-04-11 05:43 38.17052 -104.62979 25053 ft 408 kts 231°
2026-04-11 05:44 38.15312 -104.65832 25506 ft 410 kts 231°
2026-04-11 05:44 38.13553 -104.68702 25945 ft 412 kts 231°
2026-04-11 05:44 38.11784 -104.71578 26371 ft 414 kts 231°
2026-04-11 05:44 38.09999 -104.74474 26784 ft 417 kts 231°
2026-04-11 05:45 38.08205 -104.77379 27176 ft 419 kts 231°
2026-04-11 05:45 38.06403 -104.80295 27573 ft 421 kts 231°
2026-04-11 05:45 38.04588 -104.83229 27950 ft 424 kts 231°
2026-04-11 05:45 38.02761 -104.86178 28331 ft 426 kts 231°
2026-04-11 05:46 38.00927 -104.89137 28709 ft 428 kts 231°
2026-04-11 05:46 37.99082 -104.92113 29079 ft 430 kts 231°
2026-04-11 05:46 37.97232 -104.95093 29458 ft 431 kts 231°
2026-04-11 05:46 37.95379 -104.98075 29975 ft 429 kts 231°
2026-04-11 05:47 37.93539 -105.01034 30514 ft 426 kts 231°
2026-04-11 05:47 37.91715 -105.03965 31059 ft 421 kts 231°
2026-04-11 05:47 37.89917 -105.06853 31718 ft 414 kts 230°
2026-04-11 05:47 37.88142 -105.09700 32324 ft 409 kts 230°
2026-04-11 05:48 37.86386 -105.12514 32816 ft 406 kts 230°
2026-04-11 05:48 37.84660 -105.15276 33253 ft 405 kts 230°
2026-04-11 05:48 37.82921 -105.18058 33719 ft 402 kts 230°
2026-04-11 05:48 37.81194 -105.20818 34198 ft 398 kts 230°
2026-04-11 05:49 37.79484 -105.23549 34566 ft 396 kts 230°
2026-04-11 05:49 37.77769 -105.26284 34821 ft 397 kts 230°
2026-04-11 05:49 37.76032 -105.29053 35117 ft 397 kts 230°
2026-04-11 05:49 37.74336 -105.31753 35333 ft 397 kts 230°
2026-04-11 05:50 37.72619 -105.34485 35598 ft 397 kts 230°
2026-04-11 05:50 37.70899 -105.37219 35859 ft 397 kts 230°
2026-04-11 05:50 37.69186 -105.39943 36132 ft 396 kts 230°
2026-04-11 05:50 37.67473 -105.42663 36393 ft 395 kts 229°
2026-04-11 05:51 37.65760 -105.45379 36683 ft 395 kts 229°
2026-04-11 05:51 37.64059 -105.48074 37000 ft 393 kts 229°
2026-04-11 05:51 37.62364 -105.50766 37367 ft 389 kts 229°
2026-04-11 05:51 37.60682 -105.53421 37763 ft 386 kts 229°
2026-04-11 05:52 37.59555 -105.55204 37991 ft 385 kts 229°
2026-04-11 05:52 37.57904 -105.57813 38155 ft 387 kts 229°
2026-04-11 05:52 37.54530 -105.63139 38169 ft 388 kts 229°
2026-04-11 05:53 37.51175 -105.68427 38205 ft 386 kts 229°
2026-04-11 05:53 37.47817 -105.73708 38232 ft 386 kts 229°
2026-04-11 05:54 37.44458 -105.78984 38246 ft 386 kts 229°
2026-04-11 05:54 37.41092 -105.84264 38252 ft 387 kts 229°
2026-04-11 05:55 37.37719 -105.89544 38249 ft 387 kts 229°
2026-04-11 05:55 37.34344 -105.94820 38089 ft 388 kts 229°
2026-04-11 05:56 37.30958 -106.00106 38118 ft 388 kts 229°
2026-04-11 05:56 37.27565 -106.05395 38101 ft 389 kts 229°
2026-04-11 05:57 37.24166 -106.10682 38108 ft 390 kts 229°
2026-04-11 05:57 37.20758 -106.15975 38106 ft 390 kts 229°
2026-04-11 05:58 37.17350 -106.21261 38124 ft 390 kts 229°
2026-04-11 05:58 37.13943 -106.26538 38123 ft 390 kts 229°
2026-04-11 05:59 37.10551 -106.31781 38137 ft 390 kts 229°
2026-04-11 05:59 37.07137 -106.37050 38142 ft 390 kts 229°
2026-04-11 06:00 37.03718 -106.42320 38142 ft 390 kts 229°
2026-04-11 06:00 37.00289 -106.47596 38144 ft 391 kts 229°
2026-04-11 06:01 36.96847 -106.52883 38138 ft 392 kts 229°
2026-04-11 06:01 36.93391 -106.58185 38145 ft 393 kts 229°
2026-04-11 06:02 36.89938 -106.63472 38120 ft 393 kts 229°
2026-04-11 06:02 36.86482 -106.68756 38116 ft 392 kts 229°
2026-04-11 06:03 36.83027 -106.74031 38129 ft 392 kts 229°
2026-04-11 06:03 36.79702 -106.79102 38094 ft 391 kts 229°
2026-04-11 06:04 36.76257 -106.84345 38091 ft 390 kts 229°
2026-04-11 06:04 36.72818 -106.89569 38070 ft 390 kts 229°
2026-04-11 06:05 36.69384 -106.94779 38070 ft 388 kts 229°
2026-04-11 06:05 36.65952 -106.99978 38056 ft 388 kts 229°
2026-04-11 06:06 36.60809 -107.07753 38060 ft 388 kts 228°
2026-04-11 06:07 36.57368 -107.12945 38058 ft 389 kts 228°
2026-04-11 06:07 36.53919 -107.18142 38049 ft 389 kts 228°
2026-04-11 06:08 36.50486 -107.23309 38034 ft 390 kts 228°
2026-04-11 06:08 36.47022 -107.28513 38029 ft 391 kts 228°
2026-04-11 06:09 36.43643 -107.33809 38032 ft 392 kts 230°
2026-04-11 06:09 36.40374 -107.39215 38022 ft 391 kts 230°
2026-04-11 06:10 36.37101 -107.44601 38023 ft 391 kts 230°
2026-04-11 06:10 36.33807 -107.49975 38016 ft 391 kts 230°
2026-04-11 06:11 36.30511 -107.55335 38020 ft 391 kts 230°
2026-04-11 06:11 36.27213 -107.60689 38016 ft 391 kts 230°
2026-04-11 06:12 36.23936 -107.66001 38016 ft 391 kts 230°
2026-04-11 06:12 36.20631 -107.71346 38014 ft 391 kts 230°
2026-04-11 06:13 36.17317 -107.76690 38001 ft 391 kts 230°
2026-04-11 06:13 36.13995 -107.82037 37998 ft 392 kts 230°
2026-04-11 06:14 36.10665 -107.87392 37990 ft 393 kts 230°
2026-04-11 06:14 36.07332 -107.92744 37969 ft 393 kts 230°
2026-04-11 06:15 36.03991 -107.98102 37974 ft 394 kts 230°
2026-04-11 06:15 36.00641 -108.03465 37956 ft 394 kts 230°
2026-04-11 06:16 35.97287 -108.08826 37959 ft 394 kts 230°
2026-04-11 06:16 35.93928 -108.14188 37957 ft 395 kts 230°
2026-04-11 06:17 35.90567 -108.19543 37949 ft 394 kts 230°
2026-04-11 06:17 35.87231 -108.24851 37943 ft 394 kts 230°
2026-04-11 06:18 35.83869 -108.30192 37939 ft 394 kts 230°
2026-04-11 06:18 35.80507 -108.35525 37944 ft 394 kts 230°
2026-04-11 06:19 35.77147 -108.40846 37939 ft 393 kts 230°
2026-04-11 06:19 35.73789 -108.46156 37939 ft 393 kts 230°
2026-04-11 06:20 35.70433 -108.51456 37938 ft 393 kts 230°
2026-04-11 06:20 35.67070 -108.56757 37929 ft 393 kts 230°
2026-04-11 06:21 35.63710 -108.62045 37930 ft 392 kts 230°
2026-04-11 06:21 35.60348 -108.67330 37912 ft 392 kts 230°
2026-04-11 06:22 35.56984 -108.72610 37921 ft 392 kts 230°
2026-04-11 06:22 35.55304 -108.75244 38191 ft 392 kts 230°
2026-04-11 06:22 35.53641 -108.77848 38199 ft 392 kts 230°
2026-04-11 06:23 35.50277 -108.83114 38182 ft 392 kts 230°
2026-04-11 06:23 35.46885 -108.88333 38189 ft 390 kts 227°
2026-04-11 06:24 35.43189 -108.93203 38133 ft 389 kts 225°
2026-04-11 06:24 35.39424 -108.97971 38090 ft 389 kts 225°
2026-04-11 06:25 35.35674 -109.02761 38036 ft 389 kts 225°
2026-04-11 06:25 35.31944 -109.07553 38003 ft 388 kts 225°
2026-04-11 06:26 35.28247 -109.12321 37974 ft 389 kts 225°
2026-04-11 06:26 35.24524 -109.17120 37956 ft 389 kts 225°
2026-04-11 06:27 35.20794 -109.21919 37956 ft 389 kts 225°
2026-04-11 06:27 35.17057 -109.26719 37935 ft 389 kts 225°
2026-04-11 06:28 35.13326 -109.31504 37944 ft 388 kts 225°
2026-04-11 06:28 35.09598 -109.36279 37957 ft 388 kts 225°
2026-04-11 06:29 35.05870 -109.41048 37951 ft 388 kts 225°
2026-04-11 06:29 35.02143 -109.45807 37945 ft 388 kts 225°
2026-04-11 06:30 34.98432 -109.50540 37962 ft 388 kts 225°
2026-04-11 06:30 34.94703 -109.55290 37951 ft 388 kts 225°
2026-04-11 06:31 34.90968 -109.60041 37947 ft 388 kts 225°
2026-04-11 06:31 34.87234 -109.64786 37920 ft 388 kts 225°
2026-04-11 06:32 34.83502 -109.69519 37942 ft 387 kts 225°
2026-04-11 06:32 34.79784 -109.74252 37952 ft 387 kts 225°
2026-04-11 06:33 34.76062 -109.78994 37949 ft 387 kts 225°
2026-04-11 06:33 34.72337 -109.83730 37947 ft 388 kts 225°
2026-04-11 06:33 34.70628 -109.86217 37939 ft 390 kts 236°
2026-04-11 06:34 34.69363 -109.89148 37976 ft 392 kts 242°
2026-04-11 06:34 34.67142 -109.95221 37967 ft 394 kts 243°
2026-04-11 06:35 34.64933 -110.01317 37972 ft 395 kts 242°
2026-04-11 06:35 34.62684 -110.07404 37966 ft 395 kts 242°
2026-04-11 06:36 34.60418 -110.13472 37965 ft 396 kts 242°
2026-04-11 06:36 34.58127 -110.19584 37446 ft 403 kts 242°
2026-04-11 06:36 34.56969 -110.22669 36858 ft 401 kts 242°
2026-04-11 06:37 34.56206 -110.24702 36473 ft 399 kts 242°
2026-04-11 06:37 34.54878 -110.28238 35669 ft 398 kts 242°
2026-04-11 06:37 34.53741 -110.31262 34962 ft 400 kts 242°
2026-04-11 06:37 34.52592 -110.34317 34474 ft 396 kts 242°
2026-04-11 06:38 34.51452 -110.37345 33916 ft 393 kts 242°
2026-04-11 06:38 34.50322 -110.40341 33348 ft 390 kts 242°
2026-04-11 06:38 34.49197 -110.43320 32807 ft 386 kts 242°
2026-04-11 06:38 34.48463 -110.45263 32472 ft 383 kts 242°
2026-04-11 06:39 34.47357 -110.48183 32062 ft 379 kts 242°
2026-04-11 06:39 34.46262 -110.51075 31579 ft 376 kts 242°
2026-04-11 06:39 34.45173 -110.53944 31120 ft 375 kts 242°
2026-04-11 06:39 34.44083 -110.56814 30656 ft 376 kts 242°
2026-04-11 06:40 34.42988 -110.59697 30197 ft 376 kts 242°
2026-04-11 06:40 34.41898 -110.62566 29673 ft 374 kts 242°
2026-04-11 06:40 34.40814 -110.65417 29175 ft 371 kts 242°
2026-04-11 06:40 34.39738 -110.68245 28711 ft 368 kts 242°
2026-04-11 06:41 34.38670 -110.71051 28252 ft 366 kts 242°
2026-04-11 06:41 34.37608 -110.73838 27803 ft 363 kts 242°
2026-04-11 06:41 34.36551 -110.76606 27346 ft 362 kts 242°
2026-04-11 06:41 34.35441 -110.79330 26891 ft 358 kts 235°
2026-04-11 06:42 34.33907 -110.81657 26492 ft 353 kts 226°
2026-04-11 06:42 34.32227 -110.83815 26045 ft 352 kts 225°
2026-04-11 06:42 34.30540 -110.85948 25617 ft 351 kts 225°
2026-04-11 06:42 34.28864 -110.88073 25186 ft 350 kts 225°
2026-04-11 06:43 34.27188 -110.90214 24765 ft 350 kts 225°
2026-04-11 06:43 34.25518 -110.92356 24341 ft 349 kts 225°
2026-04-11 06:43 34.23882 -110.94464 23916 ft 347 kts 225°
2026-04-11 06:43 34.22239 -110.96583 23479 ft 342 kts 225°
2026-04-11 06:44 34.20643 -110.98643 23012 ft 338 kts 225°
2026-04-11 06:44 34.19051 -111.00698 22570 ft 333 kts 225°
2026-04-11 06:44 34.17473 -111.02733 22161 ft 331 kts 225°
2026-04-11 06:44 34.15904 -111.04753 21751 ft 329 kts 225°
2026-04-11 06:45 34.14349 -111.06755 21353 ft 325 kts 225°
2026-04-11 06:45 34.12812 -111.08733 20963 ft 320 kts 225°
2026-04-11 06:45 34.11295 -111.10683 20565 ft 316 kts 225°
2026-04-11 06:45 34.09792 -111.12614 20182 ft 315 kts 225°
2026-04-11 06:46 34.08294 -111.14538 19817 ft 315 kts 225°
2026-04-11 06:46 34.06797 -111.16458 19419 ft 314 kts 225°
2026-04-11 06:46 34.05307 -111.18375 19024 ft 313 kts 225°
2026-04-11 06:46 34.03819 -111.20285 18642 ft 311 kts 225°
2026-04-11 06:47 34.02332 -111.22183 18227 ft 312 kts 225°
2026-04-11 06:47 34.00842 -111.24089 17785 ft 312 kts 225°
2026-04-11 06:47 33.99359 -111.25988 17372 ft 310 kts 225°
2026-04-11 06:47 33.97888 -111.27873 16977 ft 307 kts 225°
2026-04-11 06:48 33.96427 -111.29742 16579 ft 305 kts 225°
2026-04-11 06:48 33.94980 -111.31593 16193 ft 303 kts 225°
2026-04-11 06:48 33.93537 -111.33438 15806 ft 300 kts 225°
2026-04-11 06:48 33.92111 -111.35259 15423 ft 298 kts 225°
2026-04-11 06:49 33.90713 -111.37043 15058 ft 296 kts 225°
2026-04-11 06:49 33.89307 -111.38836 14694 ft 293 kts 224°
2026-04-11 06:49 33.87898 -111.40593 14314 ft 290 kts 220°
2026-04-11 06:49 33.86327 -111.42065 14034 ft 283 kts 214°
2026-04-11 06:50 33.84713 -111.43399 13677 ft 280 kts 213°
2026-04-11 06:50 33.83151 -111.44693 13307 ft 277 kts 213°
2026-04-11 06:50 33.81588 -111.46014 12947 ft 277 kts 214°
2026-04-11 06:50 33.80012 -111.47359 12598 ft 278 kts 214°
2026-04-11 06:51 33.78438 -111.48708 12250 ft 278 kts 214°
2026-04-11 06:51 33.76862 -111.50061 11914 ft 278 kts 215°
2026-04-11 06:51 33.75291 -111.51411 11572 ft 278 kts 215°
2026-04-11 06:51 33.73719 -111.52761 11224 ft 278 kts 215°
2026-04-11 06:52 33.72155 -111.54104 10893 ft 276 kts 215°
2026-04-11 06:52 33.70618 -111.55424 10532 ft 274 kts 215°
2026-04-11 06:52 33.69074 -111.56750 10204 ft 271 kts 215°
2026-04-11 06:52 33.67546 -111.58060 9877 ft 269 kts 215°
2026-04-11 06:53 33.66026 -111.59363 9518 ft 267 kts 215°
2026-04-11 06:53 33.64520 -111.60652 9165 ft 265 kts 216°
2026-04-11 06:53 33.63024 -111.61916 8843 ft 262 kts 215°
2026-04-11 06:53 33.61535 -111.63160 8507 ft 258 kts 215°
2026-04-11 06:54 33.60089 -111.64367 8185 ft 249 kts 215°
2026-04-11 06:54 33.58692 -111.65534 7877 ft 240 kts 215°
2026-04-11 06:54 33.57345 -111.66659 7587 ft 232 kts 216°
2026-04-11 06:54 33.56039 -111.67750 7297 ft 226 kts 217°
2026-04-11 06:55 33.54766 -111.68823 7051 ft 222 kts 217°
2026-04-11 06:55 33.53505 -111.69889 6775 ft 222 kts 217°
2026-04-11 06:55 33.52242 -111.70957 6503 ft 223 kts 217°
2026-04-11 06:55 33.50967 -111.72033 6227 ft 226 kts 217°
2026-04-11 06:56 33.49672 -111.73127 5939 ft 229 kts 217°
2026-04-11 06:56 33.48373 -111.74223 5644 ft 228 kts 217°
2026-04-11 06:56 33.47076 -111.75319 5352 ft 228 kts 218°
2026-04-11 06:56 33.45969 -111.76640 5104 ft 223 kts 233°
2026-04-11 06:57 33.45016 -111.78085 5060 ft 219 kts 233°
2026-04-11 06:57 33.44082 -111.79468 5015 ft 209 kts 232°
2026-04-11 06:57 33.43173 -111.80908 4433 ft 222 kts 244°
2026-04-11 06:57 33.42847 -111.82709 3999 ft 226 kts 268°
2026-04-11 06:58 33.42865 -111.84615 3613 ft 229 kts 271°
2026-04-11 06:58 33.42887 -111.86492 3305 ft 220 kts 270°
2026-04-11 06:58 33.42888 -111.88250 2988 ft 203 kts 270°
2026-04-11 06:58 33.42886 -111.89892 2762 ft 191 kts 270°
2026-04-11 06:59 33.42885 -111.91436 2507 ft 180 kts 270°
2026-04-11 06:59 33.42884 -111.92879 2288 ft 167 kts 270°
2026-04-11 06:59 33.42884 -111.94212 2095 ft 158 kts 270°
2026-04-11 06:59 33.42884 -111.95483 1935 ft 148 kts 269°
2026-04-11 07:00 33.42884 -111.96649 1705 ft 138 kts 269°
2026-04-11 07:00 33.42882 -111.97771 1532 ft 133 kts 269°
2026-04-11 07:00 33.42881 -111.98887 1381 ft 134 kts 270°
2026-04-11 07:00 33.42884 -112.00005 1190 ft 134 kts 269°
2026-04-11 07:01 33.42884 -112.00972 1127 ft 70 kts 270°
2026-04-11 07:01 33.42884 -112.01243 1128 ft 21 kts 270°
2026-04-11 07:01 33.42885 -112.01413 1128 ft 20 kts 270°
2026-04-11 07:01 33.42886 -112.01579 1127 ft 20 kts 270°
2026-04-11 07:02 33.42948 -112.01656 1122 ft 14 kts
2026-04-11 07:02 33.43030 -112.01599 1124 ft 14 kts 39°
2026-04-11 07:02 33.43113 -112.01565 1119 ft 13 kts 356°
2026-04-11 07:02 33.43200 -112.01554 1122 ft 13 kts 41°
2026-04-11 07:03 33.43218 -112.01452 1124 ft 19 kts 97°
2026-04-11 07:03 33.43215 -112.01224 1117 ft 32 kts 89°
2026-04-11 07:03 33.43215 -112.00954 1125 ft 31 kts 89°
2026-04-11 07:03 33.43215 -112.00703 1119 ft 29 kts 90°
2026-04-11 07:04 33.43214 -112.00453 1123 ft 31 kts 90°
2026-04-11 07:04 33.43214 -112.00161 1120 ft 36 kts 90°
2026-04-11 07:04 33.43213 -111.99864 1122 ft 35 kts 90°
2026-04-11 07:04 33.43213 -111.99591 1126 ft 32 kts 90°
2026-04-11 07:05 33.43213 -111.99384 1126 ft 12 kts 83°
2026-04-11 07:05 33.43278 -111.99332 1122 ft 12 kts 37°
2026-04-11 07:05 33.43354 -111.99306 1118 ft 12 kts
2026-04-11 07:05 33.43432 -111.99311 1121 ft 10 kts 327°
2026-04-11 07:06 33.43441 -111.99359 1120 ft 2 kts 274°
2026-04-11 07:06 33.43442 -111.99376 1123 ft 1 kts 274°
2026-04-11 07:06 33.43442 -111.99377 1123 ft 0 kts 274°